User: anonymous   Login
Location: Anare
(10.6236°N, 66.6506°W)
Time: 01:59:32
(UTC+00:00)
Language:

Cosmos 2181 Rocket - Orbit

View from above orbital plane
View from above orbital plane
View from above satellite
View from above satellite

Ground track
Ground track

The orbit data is extracted from the following two-line orbital elements,

1 21903U 92012B   24167.52745762  .00000102  00000-0  90898-4 0  9998
2 21903  82.9371  90.7434 0042843 168.3455   4.9634 13.74654738618343
Epoch (UTC): 15 June 2024 12:39:32
Eccentricity: 0.0042843
inclination: 82.9371°
perigee height: 951 km
apogee height: 1014 km
right ascension of ascending node: 90.7434°
argument of perigee: 168.3455°
revolutions per day: 13.74654738
mean anomaly at epoch: 4.9634°
orbit number at epoch: 61834

The dashed part of the orbit path shows where the satellite is in the earth's shadow,  

DLR